DECAYED

STARLINK-2304, 47864 (Decayed)

Orbit data source: Space-Track

STARLINK-2304, 47864 was a payload satellite owned by SpaceX/Seattle (US) in LEO that was launched on Sun, 14 Mar 2021 UTC via an FALCON 9 launch vehicle from the Air Force Eastern Test Range (AFETR). Payload-class satellites include a variety of spacecraft equipped with specific instruments for various scientific and technological missions. These include communications satellites like Starlink; space stations such as the ISS; scientific satellites like the Hubble; Earth observation satellites from companies like Planet Labs, Umbra, and HawkEye 360; GPS; miniature CubeSats for education and research; and military/defense satellites.

Not visible in the next 10 days
Identifier
47864, 2021-021E
Orbit
Decayed
Country
Flag of USUS
Related business
Manufacturer
SpaceX/Seattle
Mission
Decayed Commercial Communications
Bus & Motor
STARLINK, Unknown motor
Mass
260 kg wet, ~248 kg dry
Launch date (UTC)
2021-03-14 (5 years ago)
Launch vehicle
FALCON 9
Launch site
Air Force Eastern Test Range (AFETR)
Object type
Payload
Rocket body
Debris
Shape & HBR
Box + 1 Pan, 10.1 m
Radar Cross Section
13.562 m², Large (>1 m²)

Expand to show TLE details & history
Last TLE update: 1 year ago

TLE from 1 year ago
0 STARLINK-2304
1 47864U 21021E   25036.56161576  .14236826  12474-4  66859-3 0  9999
2 47864  53.0263 211.9657 0005375 288.8767 184.8265 16.42957095216435
Epoch: 2025-02-05T13:28Z
TLE epoch observation values (Epoch: 2025-02-05T13:28:43.601Z)
Latitude
47.16769°
Longitude
-0.00886°
Altitude
166.568 km
Speed
7.81 km/s
True Right ascension
22h 32m 29s
True Declination
46° 58' 50"
Sunlit
Object was in daylight at epoch
Visualization orbit readout
Latitude
Unknown
Longitude
Unknown
Altitude
Unknown
Speed
Unknown
Apparent Right ascension
Unknown
Apparent Declination
Unknown
Sunlit
N/A
Visualization observer readout
Local Sidereal Time
21:28:17
Azimuth
Unknown
Elevation
Unknown
Doppler factor
Unknown
Orbital elements
Apogee altitude
161.752 km
Perigee altitude
154.726 km
Semi-major axis
6,536.376 km
Eccentricity
0.00054
Inclination
53.0263°
RAAN
211.9657°
Arg. of periapsis
288.8767°
True anomaly
184.82132°
Mean anomaly
184.8265°
Eccentric anomaly
184.82391°
Mean motion
4.10712 °/min
Orbital period
87.65 mins
BSTAR
0.00066859
Loading maneuver chart data...
Computing Atmospheric mass density...

Documentation

Showing up to 5 results
|